Wittman Regional Airport (Oshkosh, WI) (OSH)


Airport Diagram
Current Weather/Forecast (MVFR Conditions)
METAR KOSH 271453Z 25007KT 10SM BKN022 OVC046 M04/M08 A2995 RMK AO2 SLP167 60000 T10441083 51017
TAF

All Charts
General
Chart Name Download
AIRPORT DIAGRAM
TAKEOFF MINIMUMS
ALTERNATE MINIMUMS
HOT SPOT

Approaches
Chart Name Download
ILS OR LOC RWY 36
RNAV (GPS) RWY 09
RNAV (GPS) RWY 18
RNAV (GPS) RWY 27
RNAV (GPS) RWY 36
LOC/DME BC RWY 18
VOR RWY 09
VOR RWY 18
VOR RWY 27
VOR RWY 36
NDB RWY 36